[[{"header":{"parameterUnit":"m.s-1","parameterCategory":1,"la1":30.2991,"la2":30.254,"lo1":-89.0895,"lo2":-89.0444,"dy":0.0017,"dx":0.0017,"nx":28,"ny":28,"refTime":"2024-07-13T09:00:00:Z","depth":0,"parameterNumber":2,"parameterNumberName":"U-component_of_WINDS"},"data":[0,0,0,0,0,0,0,0,0,0,0,0,0,0,0,0,0,0,0,0,0,0,0,0,0,0,0,0,0,0,0,0,0,0,0,0,0,0,0,0,0,0,0,0,0,0,0,0,0,0,0,0,0,0,0,0,0,0,3.4555,3.4555,0,3.4553,3.4553,3.4553,3.4437,3.4434,3.4431,3.4428,3.4427,3.443,3.4433,0,0,0,0,0,0,0,0,0,0,0,0,0,3.4458,3.4461,3.4555,3.4555,3.4555,3.4553,3.4553,3.4553,3.4437,3.4433,3.443,3.4426,3.4426,3.443,3.4433,0,0,0,0,0,0,0,0,0,0,0,0,0,3.4483,3.4461,3.4555,3.4497,3.4491,3.4553,3.4553,3.4553,3.4438,3.4433,3.4429,3.4425,3.4425,3.4429,3.4434,3.4551,0,0,3.4446,3.4448,0,0,0,0,0,0,0,0,3.4481,3.4486,3.4505,3.4501,3.4495,3.449,3.4518,3.4552,3.4439,3.4458,3.4428,3.4422,3.4452,3.4454,3.4463,3.4551,3.4551,3.4447,3.4449,3.4451,3.4452,0,0,0,0,0,0,0,3.448,3.4486,3.4554,3.4506,3.4499,3.4471,3.4469,3.4524,3.4481,3.4456,3.4448,3.4449,3.4448,3.446,3.4463,3.4551,3.4447,3.445,3.4453,3.4455,3.473,3.4735,0,0,0,0,0,0,3.4486,3.4485,3.4554,3.4554,3.4477,3.4476,3.4474,3.4496,3.448,3.4473,3.4453,3.4444,3.4455,3.4458,3.4462,3.4594,3.4451,3.4455,3.4458,3.4725,3.4731,3.4736,0,0,0,0,0,0,3.4484,3.4493,3.4554,3.4517,3.4523,3.4483,3.4508,3.4499,3.451,3.4477,3.4469,3.4472,3.4451,3.4456,3.4528,3.4593,3.4457,3.4461,3.472,3.4727,3.4734,3.4863,0,0,0,0,0,0,3.4482,3.4493,3.4538,3.4519,3.4525,3.4621,3.4512,3.4502,3.4517,3.4505,3.4493,3.4487,3.4448,3.4523,3.4533,3.4596,3.4464,3.4714,3.4723,3.4732,3.4852,3.4873,3.4891,0,0,0,0,0,3.4479,3.4575,3.454,3.4549,3.4579,3.4625,3.4628,3.4581,3.4523,3.4566,3.4545,3.4487,3.4586,3.4531,3.4541,3.4607,3.4709,3.472,3.4731,3.4844,3.4869,3.4891,0,0,0,0,0,0,3.4603,3.4572,3.4533,3.4626,3.4629,3.4605,3.4658,3.461,3.463,3.4618,3.4559,3.4557,3.4638,3.4631,3.4571,3.4718,3.4637,3.465,3.4719,3.4743,3.4762,3.4761,3.4468,0,0,0,0,0,3.4641,3.468,3.4651,3.4736,3.4739,3.4699,3.4717,3.468,3.4681,3.4682,3.4666,3.467,3.47,3.4722,3.4749,3.4852,3.4846,3.4903,3.4922,3.4938,3.4949,3.4999,3.5023,3.4772,3.4772,3.4771,0,0,3.472,3.4708,3.4736,3.476,3.4758,3.4799,3.4701,3.475,3.4779,3.469,3.4755,3.4745,3.4744,3.4831,3.4869,3.4827,3.5018,3.4952,3.4965,3.4967,3.5013,3.5036,3.5058,3.4779,3.4778,3.4777,0,0,3.4884,3.4881,3.4948,3.4948,3.4946,3.4918,3.4935,3.4919,3.4907,3.4973,3.4905,3.4941,3.4996,3.4998,3.5006,3.517,3.5116,3.5181,3.5281,3.533,3.535,3.5367,3.5422,3.5442,3.5193,3.5193,3.5193,0,3.4982,3.5041,3.499,3.5041,3.5053,3.4974,3.5041,3.5044,3.5051,3.5061,3.5015,3.5081,3.5076,3.516,3.52,3.5211,3.5226,3.518,3.5351,3.5368,3.5383,3.5434,3.5456,3.5201,3.52,3.5199,3.5198,0,3.516,3.5202,3.5257,3.5264,3.5282,3.5342,3.5299,3.5324,3.5287,3.5264,3.533,3.5322,3.5344,3.5362,3.5327,3.5441,3.5415,3.5362,3.5278,3.5416,3.5462,3.5482,3.5211,3.5209,3.5206,3.5205,0,0,3.5399,3.5376,3.5397,3.5398,3.539,3.5421,3.5477,3.5498,3.5518,3.5527,3.5571,3.562,3.5569,3.5578,3.5543,3.5587,3.5712,3.5527,3.5526,3.5558,3.5834,3.5871,3.5894,3.5679,3.5682,3.5685,3.5832,0,3.5554,3.5646,3.5601,3.5699,3.5735,3.5661,3.5709,3.5709,3.569,3.5718,3.5698,3.5731,3.5664,3.5669,3.571,3.5689,3.5766,3.5678,3.5716,3.5718,3.5714,3.592,3.5959,3.6098,3.5851,3.5854,3.5856,0,3.5746,3.576,3.5861,3.5843,3.5856,3.5901,3.5914,3.5943,3.5942,3.5924,3.5935,3.5888,3.5941,3.5862,3.5932,3.5873,3.5887,3.5879,3.5883,3.5881,3.5792,3.5919,3.6142,3.6161,3.5886,3.5883,3.5881,0,3.5905,3.595,3.6014,3.6018,3.6,3.6032,3.6027,3.602,3.6035,3.6048,3.6057,3.6077,3.6087,3.6104,3.6064,3.601,3.6139,3.6057,3.6124,3.6125,3.615,3.6149,3.6374,3.6168,3.6168,3.6167,3.6167,0,3.6079,3.6143,3.6084,3.6124,3.6192,3.6141,3.621,3.6197,3.6192,3.6227,3.6166,3.6201,3.6148,3.6177,3.6147,3.6208,3.6214,3.62,3.619,3.6203,3.6204,3.6207,3.6195,3.6173,3.6171,3.617,3.6169,0,3.6266,3.623,3.6295,3.6273,3.6269,3.632,3.63,3.6335,3.6313,3.6358,3.6365,3.6329,3.636,3.6323,3.6352,3.6331,3.6413,3.6391,3.6412,3.6404,3.6471,3.6464,3.6704,3.6731,3.6512,3.6514,3.6516,0,3.6377,3.6424,3.6406,3.6424,3.6421,3.6453,3.6467,3.6419,3.6436,3.6437,3.6471,3.6497,3.6514,3.6568,3.6544,3.6565,3.654,3.6623,3.6543,3.6553,3.6536,3.6532,3.6535,3.6638,3.6641,3.6643,3.6645,0,3.6577,3.6557,3.6578,3.6594,3.6612,3.6622,3.6628,3.6647,3.6597,3.6619,3.6649,3.6663,3.6691,3.6716,3.6731,3.6725,3.6676,3.6671,3.6686,3.6697,3.6705,3.6697,3.6452,3.6664,3.6662,3.6661,3.666,3.6659,3.6726,3.6762,3.6754,3.678,3.6779,3.6786,3.6817,3.6797,3.6821,3.6838,3.681,3.6847,3.6843,3.6857,3.6857,3.6885,3.6849,3.6873,3.6878,3.6884,3.6892,3.6705,3.6888,3.6887,3.6887,3.6886,3.6886,0,3.6918,3.6909,3.6934,3.6942,3.6963,3.6916,3.692,3.6939,3.6972,3.6972,3.699,3.7024,3.7048,3.7027,3.7047,3.7073,3.7051,3.7079,3.7074,3.7073,3.6925,3.6907,3.7097,3.7097,3.7097,3.7097,3.7097,3.7096,3.702,3.7078,3.7057,3.7113,3.7104,3.7138,3.7144,3.7149,3.7149,3.7188,3.7207,3.7193,3.7184,3.7203,3.7223,3.7216,3.7224,3.7259,3.7244,3.7105,3.7084,3.7064,3.7047,3.7263,3.7263,3.7389,3.7391,3.7392]},{"header":{"parameterUnit":"m.s-1","parameterCategory":1,"la1":30.2991,"la2":30.254,"lo1":-89.0895,"lo2":-89.0444,"dy":0.0017,"dx":0.0017,"nx":28,"ny":28,"refTime":"2024-07-13T09:00:00:Z","depth":0,"parameterNumber":3,"parameterNumberName":"V-component_of_WINDS"},"data":[0,0,0,0,0,0,0,0,0,0,0,0,0,0,0,0,0,0,0,0,0,0,0,0,0,0,0,0,0,0,0,0,0,0,0,0,0,0,0,0,0,0,0,0,0,0,0,0,0,0,0,0,0,0,0,0,0,0,1.8878,1.8878,0,1.8891,1.8892,1.8892,1.8865,1.8865,1.8864,1.8863,1.8877,1.8878,1.888,0,0,0,0,0,0,0,0,0,0,0,0,0,1.8829,1.883,1.8878,1.8878,1.8878,1.8891,1.8892,1.8892,1.8866,1.8864,1.8863,1.8862,1.8877,1.8878,1.888,0,0,0,0,0,0,0,0,0,0,0,0,0,1.8847,1.883,1.8878,1.8867,1.8866,1.8891,1.8892,1.8892,1.8866,1.8864,1.8863,1.8862,1.8876,1.8878,1.888,1.8917,0,0,1.8885,1.8886,0,0,0,0,0,0,0,0,1.8846,1.8849,1.8868,1.8867,1.8867,1.8875,1.8879,1.89,1.8866,1.8866,1.8863,1.8861,1.8878,1.8879,1.8885,1.8918,1.8918,1.8886,1.8887,1.8887,1.8888,0,0,0,0,0,0,0,1.8845,1.8848,1.8883,1.8868,1.8867,1.8861,1.8862,1.8883,1.8879,1.8866,1.8864,1.8866,1.8877,1.8883,1.8885,1.8919,1.8886,1.8887,1.8888,1.8889,1.8981,1.8982,0,0,0,0,0,0,1.8845,1.8847,1.8883,1.8884,1.8853,1.8863,1.8864,1.8874,1.8879,1.8878,1.8867,1.8864,1.8881,1.8883,1.8885,1.8927,1.8887,1.8889,1.889,1.8979,1.8981,1.8982,0,0,0,0,0,0,1.8844,1.8848,1.8882,1.8865,1.8869,1.8865,1.8876,1.8875,1.8881,1.8879,1.8879,1.8874,1.888,1.8883,1.8909,1.8928,1.889,1.8892,1.8978,1.898,1.8982,1.9013,0,0,0,0,0,0,1.8843,1.8848,1.8862,1.8865,1.887,1.8906,1.8877,1.8876,1.8884,1.8881,1.8886,1.8885,1.8879,1.8906,1.8911,1.8929,1.8893,1.8976,1.8979,1.8981,1.901,1.9016,1.9021,0,0,0,0,0,1.8841,1.8871,1.8863,1.8868,1.8888,1.8907,1.8909,1.8901,1.8886,1.89,1.8898,1.8885,1.8925,1.8909,1.8914,1.8934,1.8975,1.8978,1.8981,1.9008,1.9015,1.9021,0,0,0,0,0,0,1.8872,1.8872,1.8863,1.8895,1.8901,1.8903,1.892,1.8909,1.892,1.8917,1.8906,1.8908,1.8935,1.8937,1.892,1.8969,1.8947,1.8951,1.8966,1.8973,1.8978,1.8976,1.8894,0,0,0,0,0,1.8882,1.8898,1.8897,1.8926,1.8929,1.8924,1.8932,1.8925,1.8931,1.8934,1.8935,1.8941,1.8955,1.8964,1.8977,1.9011,1.9011,1.9027,1.9032,1.9036,1.9039,1.9056,1.9062,1.8992,1.8992,1.8992,0,0,1.8904,1.8906,1.8917,1.8932,1.8936,1.8952,1.8927,1.8945,1.8957,1.8937,1.8961,1.8962,1.8968,1.8998,1.9011,1.9,1.9059,1.904,1.9043,1.9044,1.9059,1.9066,1.9072,1.8995,1.8994,1.8994,0,0,1.8951,1.8955,1.8978,1.8982,1.8988,1.8985,1.899,1.8993,1.8992,1.9016,1.9001,1.9015,1.9039,1.9044,1.9049,1.9097,1.9084,1.9102,1.9128,1.9144,1.915,1.9154,1.917,1.9176,1.9105,1.9105,1.9105,0,1.8978,1.9001,1.8992,1.9011,1.9017,1.8999,1.9022,1.9027,1.9037,1.9041,1.9029,1.9058,1.9061,1.9091,1.9102,1.9108,1.9113,1.91,1.915,1.9154,1.9159,1.9173,1.9179,1.9107,1.9107,1.9107,1.9106,0,1.9033,1.9049,1.9067,1.9076,1.9085,1.9106,1.9099,1.9109,1.9101,1.9098,1.9122,1.9125,1.9137,1.9144,1.9137,1.9172,1.9165,1.9152,1.9129,1.9167,1.9181,1.9186,1.911,1.9109,1.9109,1.9108,0,0,1.91,1.9102,1.9109,1.9112,1.9116,1.9129,1.9149,1.916,1.9168,1.9175,1.919,1.9211,1.9198,1.9204,1.9197,1.9212,1.9247,1.9196,1.9196,1.9204,1.9284,1.9293,1.9299,1.9239,1.924,1.9241,1.9283,0,1.9146,1.9179,1.917,1.9203,1.9217,1.92,1.9217,1.9221,1.9219,1.923,1.9228,1.9242,1.9225,1.9228,1.9242,1.924,1.9262,1.9237,1.9252,1.9253,1.925,1.9307,1.9316,1.9356,1.9288,1.9289,1.929,0,1.9204,1.9212,1.9246,1.9246,1.9252,1.9267,1.9276,1.9287,1.9291,1.9289,1.9295,1.9285,1.9304,1.9282,1.9307,1.929,1.9295,1.9295,1.9297,1.9297,1.9273,1.9307,1.9368,1.9373,1.9298,1.9297,1.9297,0,1.9247,1.9267,1.9289,1.9293,1.9294,1.9305,1.9306,1.9309,1.9316,1.9323,1.9327,1.9338,1.9343,1.9351,1.9343,1.9329,1.9369,1.9347,1.9366,1.9366,1.9374,1.9374,1.9436,1.9381,1.9381,1.9381,1.938,0,1.9298,1.932,1.9308,1.9322,1.9345,1.9334,1.9357,1.9356,1.9359,1.9371,1.9358,1.937,1.936,1.9371,1.9366,1.9386,1.9389,1.9387,1.9385,1.9387,1.9387,1.939,1.9387,1.9382,1.9382,1.9381,1.9381,0,1.9351,1.9344,1.9367,1.9366,1.9366,1.9383,1.9382,1.9394,1.939,1.9407,1.941,1.9405,1.9417,1.941,1.9424,1.942,1.9446,1.9441,1.9444,1.9442,1.9461,1.9458,1.9526,1.9533,1.9475,1.9475,1.9476,0,1.9383,1.9398,1.9398,1.9406,1.9407,1.9419,1.9426,1.9416,1.9423,1.9428,1.944,1.9451,1.9459,1.9479,1.9476,1.9486,1.948,1.9503,1.9482,1.9483,1.9479,1.9477,1.9478,1.9507,1.9508,1.9508,1.9509,0,1.944,1.9436,1.9445,1.9453,1.9461,1.9467,1.9472,1.9479,1.9469,1.9478,1.949,1.9496,1.9508,1.9519,1.9527,1.9528,1.9517,1.9516,1.952,1.9522,1.9523,1.9521,1.9454,1.9514,1.9514,1.9513,1.9513,1.9513,1.9482,1.9494,1.9496,1.9506,1.9509,1.9513,1.9524,1.9521,1.9531,1.954,1.9534,1.9548,1.955,1.9559,1.9562,1.9572,1.9563,1.957,1.9572,1.9573,1.9575,1.9522,1.9574,1.9574,1.9574,1.9573,1.9573,0,1.9537,1.9537,1.9547,1.9553,1.9561,1.9549,1.9554,1.9561,1.9573,1.9576,1.9584,1.9597,1.9607,1.9605,1.9614,1.9622,1.9617,1.9625,1.9623,1.9623,1.9583,1.9578,1.9629,1.9629,1.9629,1.9629,1.9629,1.9629,1.9567,1.9586,1.9582,1.9601,1.9601,1.9614,1.9617,1.9621,1.9623,1.9638,1.9646,1.9644,1.9644,1.9653,1.9661,1.966,1.9664,1.9673,1.967,1.9632,1.9627,1.9621,1.9616,1.9674,1.9674,1.9709,1.9709,1.9709]}]]